TimeMST,TemperatureF,Dew PointF,Humidity,Sea Level PressureIn,VisibilityMPH,Wind Direction,Wind SpeedMPH,Gust SpeedMPH,PrecipitationIn,Events,Conditions,WindDirDegrees,DateUTC
12:15 AM,48.2,48.2,100,30.21,5.0,Calm,Calm,-,N/A,,Overcast,0,2013-02-28 07:15:00
12:35 AM,48.2,48.2,100,30.21,5.0,Calm,Calm,-,N/A,Rain,Light Rain,0,2013-02-28 07:35:00
12:55 AM,48.2,48.2,100,30.21,4.0,Calm,Calm,-,N/A,Rain,Rain,0,2013-02-28 07:55:00
1:15 AM,48.2,48.2,100,30.20,3.0,Calm,Calm,-,0.01,,Drizzle,0,2013-02-28 08:15:00
1:35 AM,48.2,48.2,100,30.19,2.5,Calm,Calm,-,0.01,,Light Drizzle,0,2013-02-28 08:35:00
2:15 AM,48.2,48.2,100,30.19,2.5,Calm,Calm,-,N/A,,Drizzle,0,2013-02-28 09:15:00
2:35 AM,48.2,48.2,100,30.19,2.5,NE,3.5,-,0.03,,Heavy Drizzle,50,2013-02-28 09:35:00
2:55 AM,48.2,48.2,100,30.19,2.5,NE,3.5,-,0.06,,Heavy Drizzle,50,2013-02-28 09:55:00
3:15 AM,50.0,50.0,100,30.19,2.5,NE,3.5,-,0.03,,Heavy Drizzle,40,2013-02-28 10:15:00
3:35 AM,50.0,50.0,100,30.19,3.0,Calm,Calm,-,0.06,,Heavy Drizzle,0,2013-02-28 10:35:00
3:55 AM,50.0,50.0,100,30.19,2.5,Calm,Calm,-,0.10,,Heavy Drizzle,0,2013-02-28 10:55:00
4:15 AM,50.0,50.0,100,30.19,2.5,South,4.6,-,0.03,Rain,Heavy Rain,170,2013-02-28 11:15:00
4:35 AM,51.8,51.8,100,30.19,3.0,South,6.9,-,0.06,Rain,Rain,170,2013-02-28 11:35:00
4:55 AM,51.8,51.8,100,30.19,3.0,South,9.2,-,0.07,Rain,Rain,170,2013-02-28 11:55:00
5:15 AM,51.8,51.8,100,30.19,3.0,South,5.8,-,N/A,,Drizzle,190,2013-02-28 12:15:00
5:35 AM,51.8,51.8,100,30.19,3.0,South,11.5,20.7,N/A,,Drizzle,190,2013-02-28 12:35:00
5:55 AM,51.8,51.8,100,30.19,3.0,SSW,15.0,24.2,N/A,Rain,Rain,200,2013-02-28 12:55:00
6:15 AM,51.8,51.8,100,30.20,3.0,SSW,11.5,16.1,N/A,,Drizzle,200,2013-02-28 13:15:00
6:35 AM,51.8,51.8,100,30.21,3.0,SSW,11.5,17.3,0.01,,Drizzle,200,2013-02-28 13:35:00
6:55 AM,51.8,51.8,100,30.21,4.0,SSW,9.2,-,0.01,Rain,Light Rain,210,2013-02-28 13:55:00
7:15 AM,51.8,51.8,100,30.21,4.0,SSW,12.7,16.1,0.01,Rain,Light Rain,200,2013-02-28 14:15:00
7:35 AM,51.8,51.8,100,30.22,5.0,SSW,9.2,-,0.02,Rain,Light Rain,200,2013-02-28 14:35:00
7:55 AM,51.8,51.8,100,30.23,7.0,SSW,8.1,-,0.05,Rain,Rain,210,2013-02-28 14:55:00
8:15 AM,51.8,51.8,100,30.23,4.0,SSW,5.8,-,0.04,Rain,Rain,200,2013-02-28 15:15:00
8:35 AM,51.8,51.8,100,30.24,2.5,Calm,Calm,-,0.09,Rain,Rain,0,2013-02-28 15:35:00
8:55 AM,51.8,51.8,100,30.24,4.0,Calm,Calm,-,0.15,Rain,Rain,0,2013-02-28 15:55:00
9:15 AM,51.8,51.8,100,30.25,4.0,Calm,Calm,-,0.05,Rain,Rain,0,2013-02-28 16:15:00
9:35 AM,51.8,51.8,100,30.25,4.0,Calm,Calm,-,0.10,Rain,Rain,0,2013-02-28 16:35:00
9:55 AM,51.8,51.8,100,30.26,5.0,Calm,Calm,-,0.12,Rain,Rain,0,2013-02-28 16:55:00
10:15 AM,51.8,51.8,100,30.27,1.8,Calm,Calm,-,0.01,Rain,Light Rain,0,2013-02-28 17:15:00
10:35 AM,51.8,51.8,100,30.27,2.0,SSE,4.6,-,0.02,Rain,Rain,150,2013-02-28 17:35:00
10:55 AM,53.6,51.8,94,30.28,3.0,South,4.6,-,0.05,Rain,Light Rain,180,2013-02-28 17:55:00
11:15 AM,53.6,53.6,100,30.28,2.0,SSE,4.6,-,0.01,Rain,Light Rain,160,2013-02-28 18:15:00
11:35 AM,53.6,53.6,100,30.29,3.0,South,3.5,-,0.04,Rain,Rain,170,2013-02-28 18:35:00
11:55 AM,53.6,53.6,100,30.29,2.5,SSE,3.5,-,0.07,Rain,Rain,150,2013-02-28 18:55:00
12:15 PM,53.6,53.6,100,30.29,2.0,SSE,4.6,-,0.02,Rain,Rain,160,2013-02-28 19:15:00
12:35 PM,53.6,53.6,100,30.31,2.5,SSW,6.9,-,0.02,Rain,Light Rain,200,2013-02-28 19:35:00
12:55 PM,53.6,53.6,100,30.32,3.0,SSW,3.5,-,0.04,Rain,Rain,200,2013-02-28 19:55:00
1:15 PM,53.6,53.6,100,30.32,2.5,SSE,9.2,-,0.03,Rain,Light Rain,160,2013-02-28 20:15:00
1:35 PM,53.6,51.8,94,30.32,3.0,South,6.9,-,0.04,Rain,Light Rain,170,2013-02-28 20:35:00
1:55 PM,53.6,53.6,100,30.32,4.0,SSW,6.9,-,0.05,Rain,Light Rain,200,2013-02-28 20:55:00
2:35 PM,53.6,53.6,100,30.32,2.5,South,6.9,-,0.01,,Light Drizzle,180,2013-02-28 21:35:00
2:55 PM,53.6,53.6,100,30.33,2.5,SSW,4.6,-,0.01,,Light Drizzle,200,2013-02-28 21:55:00
3:15 PM,53.6,53.6,100,30.32,3.0,South,12.7,-,N/A,,Drizzle,170,2013-02-28 22:15:00
3:35 PM,53.6,53.6,100,30.33,2.0,South,6.9,-,0.01,Rain,Light Rain,180,2013-02-28 22:35:00
3:55 PM,53.6,53.6,100,30.33,3.0,South,4.6,-,0.02,Rain,Light Rain,170,2013-02-28 22:55:00
4:15 PM,53.6,53.6,100,30.35,2.5,SSW,4.6,-,N/A,,Drizzle,210,2013-02-28 23:15:00
4:55 PM,53.6,51.8,94,30.36,4.0,South,10.4,-,0.03,Rain,Rain,190,2013-02-28 23:55:00
5:15 PM,53.6,51.8,94,30.36,4.0,South,5.8,-,0.04,Rain,Light Rain,190,2013-03-01 00:15:00
5:35 PM,53.6,53.6,100,30.36,2.5,South,4.6,-,0.05,Rain,Light Rain,170,2013-03-01 00:35:00
5:55 PM,53.6,53.6,100,30.37,3.0,South,5.8,-,0.05,Rain,Rain,180,2013-03-01 00:55:00
6:15 PM,53.6,53.6,100,30.37,3.0,South,6.9,-,N/A,,Overcast,190,2013-03-01 01:15:00
6:35 PM,53.6,53.6,100,30.37,2.5,SSW,6.9,-,N/A,Rain,Light Rain,200,2013-03-01 01:35:00
6:55 PM,53.6,53.6,100,30.37,2.5,South,4.6,-,N/A,,Light Drizzle,170,2013-03-01 01:55:00
7:15 PM,53.6,53.6,100,30.38,5.0,South,3.5,-,N/A,,Overcast,190,2013-03-01 02:15:00
7:35 PM,53.6,53.6,100,30.39,2.5,Calm,Calm,-,0.01,Rain,Light Rain,0,2013-03-01 02:35:00
8:15 PM,53.6,53.6,100,30.40,2.5,South,6.9,-,0.01,,Drizzle,180,2013-03-01 03:15:00
8:35 PM,53.6,53.6,100,30.40,4.0,South,5.8,-,0.01,,Light Drizzle,180,2013-03-01 03:35:00
9:15 PM,53.6,53.6,100,30.40,4.0,South,5.8,-,N/A,Rain,Rain,170,2013-03-01 04:15:00
9:35 PM,53.6,53.6,100,30.40,4.0,South,6.9,-,0.01,,Light Drizzle,190,2013-03-01 04:35:00
9:55 PM,53.6,53.6,100,30.40,4.0,South,6.9,-,0.01,,Drizzle,180,2013-03-01 04:55:00
10:15 PM,53.6,53.6,100,30.41,7.0,South,8.1,-,N/A,,Overcast,180,2013-03-01 05:15:00
10:35 PM,53.6,53.6,100,30.42,4.0,South,9.2,-,N/A,Rain,Light Rain,180,2013-03-01 05:35:00
10:55 PM,53.6,53.6,100,30.42,7.0,South,10.4,16.1,N/A,,Overcast,190,2013-03-01 05:55:00
11:15 PM,53.6,53.6,100,30.42,5.0,South,8.1,-,N/A,Rain,Light Rain,190,2013-03-01 06:15:00
11:35 PM,53.6,53.6,100,30.43,4.0,South,6.9,-,0.01,,Heavy Drizzle,190,2013-03-01 06:35:00
11:55 PM,53.6,53.6,100,30.43,4.0,South,5.8,-,0.03,,Heavy Drizzle,170,2013-03-01 06:55:00